www.pogodaiklimat.ru

Погода и климат >> Архив погоды >> Казахстан >> Караганда


АРХИВ ПОГОДЫ в Караганде

Время (UTC), дата Ветер
(напр.,м/с)
 
Видим.   Явления Облачность Т
(С)
Тd
(С)
f
(%)
Тe
(С)
Тes
(С)
Комфортность P
(гПа)
Po
(гПа)
Тmin
(С)
Tmax
(С)
R
(мм)
R24
(мм)
S
(см)
09 12.10 ЮЗ 7-15
{16}
20 км 10/8 600 м
[Cb cap Cs]
+14.2 -2.3 32 +12 +13 тепло 1004.8 941.5
12 12.10 ЮЗ 7
{15}
20 км 10/8 600 м
[Cb cap Cs]
+13.4 -1.5 36 +11 +11 тепло 1003.2 939.8
15 12.10 ЮЗ 3
{15}
10 км слабый ливневой дождь 10/10 600 м
[Cb cap]
+5.6 +4.3 91 +2 +2 по сезону 1005.3 940.2 +14.4
18 12.10 ЮЗ 3 10 км слабый ливневой дождь 10/10 600 м
[Cb cap]
+4.0 +2.8 92 0 0 по сезону 1004.8 939.3 +14.4 1
21 12.10 СЗ 3 4000 м дымка {ливн. осадки} 10/10 600 м
[Cb cap]
+2.7 +1.7 93 -2 -2 по сезону 1005.1 939.4
00 13.10 СЗ 2 4000 м дымка {ливн. осадки} 9/9 600 м
[Cb cap]
+1.4 +0.4 93 -2 -2 по сезону 1004.4 938.4
03 13.10 СЗ 2 500 м ливневой снег 10/10 600 м
[Cb cap]
+0.3 -0.5 94 -3 -3 прохладно 1005.8 939.4 1
06 13.10 З 3 20 км {ливн. осадки} 9/8 600 м
[Cb cap Ac trans]
+1.4 -0.5 87 -3 -2 очень
холодно
1007.1 940.8 +0.3 7
09 13.10 З 2 20 км в посл. час ливневой дождь 10/10 600 м
[Cb cap]
+1.8 -0.6 84 -1 -1 холодно 1008.0 941.8
12 13.10 ЮЗ 2 20 км {ливн. осадки} 6/4 600 м
[Cb cap Ci fib]
+2.6 -1.2 76 -0 -0 холодно 1009.0 942.9
15 13.10 Ю 2 4000 м слабый ливневой снег 10/8 600 м
[Cb cap Ac und]
+0.6 -0.8 90 -3 -3 холодно 1010.1 943.5 +2.9
18 13.10 СЗ 5 2000 м ливневой снег 10/10 600 м
[Cb cap]
-0.8 -1.7 94 -7 -7 холодно 1012.3 945.2 +2.9 2
21 13.10 З 4 20 км {ливн. осадки} 10/0
[Ac lent Cs]
-2.1 -3.6 89 -8 -8 холодно 1016.6 948.8
00 14.10 ЮЗ 4 4000 м слабый ливневой снег 10/10 600 м
[Cb cap]
-2.2 -3.1 94 -8 -8 холодно 1018.6 950.7
03 14.10 ЮЗ 4 20 км {ливн. осадки} 8/8 600 м
[Cb cap]
-1.9 -3.3 90 -8 -8 очень
холодно
1019.8 951.9 5
06 14.10 З 5 10 км слабый ливневой снег 10/10 600 м
[Cb cap]
-1.3 -3.5 85 -8 -8 очень
холодно
1021.1 953.3 -2.6 4
09 14.10 Ю 4 20 км в посл. час ливневой снег 8/8 600 м
[Cb cap]
-0.3 -2.9 83 -6 -5 очень
холодно
1021.3 953.7
12 14.10 З 3 20 км в посл. час ливневой снег 6/6 600 м
[Cb cap]
-1.2 -3.1 87 -6 -6 очень
холодно
1022.4 954.6
15 14.10 Ю 2 20 км 3/0
[Ci fib]
-2.7 -4.9 85 -7 -7 очень
холодно
1023.0 954.7 0.0
18 14.10 ЮВ 2 20 км ясно -4.8 -6.8 86 -9 -9 очень
холодно
1022.9 954.1 0.0 4
21 14.10 ЮВ 3 10 км слабый ливневой снег 9/9 600 м
[Cb cap]
-2.8 -4.1 91 -8 -8 холодно 1020.7 952.5
00 15.10 ЮВ 2 10 км слабый ливневой снег 10/10 600 м
[Cb cap]
-0.9 -1.6 95 -5 -5 прохладно 1018.4 950.9
03 15.10 ЮВ 3 10 км слабый ливневой снег 10/10 600 м
[Cb cap]
-1.0 -2.3 91 -6 -6 холодно 1016.4 949.0 9
06 15.10 ЮВ 4 4000 м слабый ливневой снег 10/10 600 м
[Cb cap]
+0.4 -0.4 94 -5 -5 очень
холодно
1012.9 946.0 -5.5 3
09 15.10 ЮВ 3 4000 м в посл. час ливневой снег 10/10 600 м
[Cb cap]
+1.8 +0.5 91 -3 -3 очень
холодно
1010.4 944.0
12 15.10 Ю 3 4000 м дымка {ливн. осадки} 10/10 600 м
[Cb cap]
+1.8 +0.5 91 -3 -3 очень
холодно
1009.6 943.3
15 15.10 В 1 2000 м ливневой снег 10/10 600 м
[Cb cap]
+0.5 -0.3 94 -2 -2 холодно 1008.6 942.0 +2.1
18 15.10 В 1 4000 м слабый ливневой снег 10/10 600 м
[Cb cap]
+0.5 0.0 96 -2 -2 по сезону 1006.8 940.4 +2.1 6
21 15.10 З 3 2000 м ливневой снег 10/10 600 м
[Cb cap]
+0.2 -0.1 98 -5 -5 прохладно 1007.5 941.0
00 16.10 З 3 10 км слабый ливневой снег 10/10 600 м
[Cb cap]
-0.1 -0.9 94 -5 -5 прохладно 1009.5 942.8
03 16.10 ЮЗ 5 4000 м в посл. час ливневой снег 10/10 300 м
[Cb cap]
-0.1 -0.7 96 -6 -6 холодно 1012.2 945.3 5
06 16.10 ЮЗ 6 20 км {ливн. осадки} 10/10 300 м
[St]
-0.2 -2.2 86 -7 -7 очень
холодно
1014.1 947.0 -0.2 3
09 16.10 ЮЗ 6 20 км 10/10 600 м
[Sc]
+0.4 -2.2 83 -6 -6 очень
холодно
1015.3 948.3
12 16.10 ЮЗ 5 20 км {ливн. осадки} 10/10 600 м
[Cb cap]
+0.5 -2.4 81 -5 -5 очень
холодно
1016.6 949.5
15 16.10 ЮЗ 4 4000 м слабый ливневой снег 10/10 600 м
[Cb cap]
-0.9 -2.4 90 -7 -7 очень
холодно
1018.7 951.1 +0.7
18 16.10 ЮЗ 2 10 км слабый снег {ливн. осадки} 10/10 600 м
[Frnb Ns]
-1.0 -2.2 92 -5 -5 прохладно 1019.4 951.8 +0.7 1
21 16.10 СЗ 2 10 км слабый снег 10/10 300 м
[Frnb Ns]
-1.2 -2.1 94 -5 -5 прохладно 1020.8 953.1
00 17.10 СЗ 5 10 км слабый снег 10/10 600 м
[Frnb Ns]
-1.6 -2.7 92 -8 -8 холодно 1024.5 956.3
03 17.10 З 5 1000 м дымка {снег} 10/0
[As op]
-3.9 -4.7 94 -11 -11 очень
холодно
1028.2 959.3 6
06 17.10 З 3 20 км {снег} 10/10 1000 м
[Sc]
-2.3 -3.8 89 -7 -7 очень
холодно
1028.9 960.3 -3.9 1
09 17.10 З 4 10 км слабый ливневой снег 10/10 600 м
[Cb cap]
-0.9 -3.4 83 -7 -7 очень
холодно
1028.1 959.9
12 17.10 ЮЗ 6 20 км {ливн. осадки} 10/10 600 м
[Cb cap]
-0.9 -4.3 78 -8 -8 очень
холодно
1027.2 959.0
15 17.10 ЮЗ 5 20 км 10/10 1000 м
[Sc]
-2.0 -5.1 79 -8 -8 очень
холодно
1025.9 957.6 -0.7
18 17.10 ЮЗ 7 1000 м снег {метель} 10/10 300 м
[Frnb Ns]
-1.9 -3.0 92 -10 -10 очень
холодно
1022.0 954.0 -0.7 0.0
21 17.10 Ю 8-16
{16}
1000 м снег {метель} 10/10 300 м
[Frnb Ns]
-1.1 -2.1 93 -9 -9 холодно 1018.4 950.8
00 18.10 Ю 7-15
{18}
4000 м слабый снег {метель} 10/10 300 м
[Frnb Ns]
-0.3 -1.4 92 -8 -8 холодно 1015.1 947.9
03 18.10 ЮЗ 8 10 км слабый снег {метель} 10/10 300 м
[Frnb Ns]
+0.1 -1.6 88 -7 -7 холодно 1012.3 945.4 9
06 18.10 Ю 6-15
{17}
1000 м сильный снег {метель} 10/10 300 м
[Frnb Ns]
-0.1 -0.7 96 -7 -7 очень
холодно
1010.8 943.9 -2.5 5
09 18.10 ЮЗ 7
{15}
4000 м снег 10/10 300 м
[Frnb Ns]
-0.1 -0.4 98 -7 -7 очень
холодно
1009.5 942.8
12 18.10 З 3 10 км слабый снег 10/10 300 м
[Frnb Ns]
0.0 -0.6 96 -5 -5 очень
холодно
1011.4 944.5
15 18.10 ЮЗ 3 20 км {снег} 9/9 1000 м
[Sc]
-0.5 -2.3 88 -5 -5 холодно 1012.9 945.8 +1.0
18 18.10 ЮЗ 4 20 км {снег} 9/6 1000 м
[Sc Ac trans]
-1.3 -3.2 87 -7 -7 холодно 1013.0 945.7 +1.0 6
21 18.10 З 4 20 км {ливн. осадки} 10/10 600 м
[Cb cap]
-0.7 -3.7 80 -6 -6 прохладно 1012.6 945.4
00 19.10 ЮЗ 4 10 км слабый ливневой снег 10/10 600 м
[Cb cap]
-0.9 -2.4 90 -7 -7 прохладно 1013.1 945.9
03 19.10 З 4 20 км в посл. час ливневой снег 10/10 600 м
[Cb cap]
-1.8 -3.2 90 -8 -8 очень
холодно
1014.2 946.7 19
06 19.10 З 5 10 км слабый ливневой снег 10/10 600 м
[Cb cap]
-1.6 -3.9 84 -8 -8 очень
холодно
1015.6 948.0 -1.8 2

 

Местоположение метеостанции Караганда (Карагандинская область, Казахстан): широта 49.80 долгота 73.15 высота над уровнем моря 553 м.

В архиве по умолчанию представлена погода в Караганде за последнюю неделю. Архивные данные за месяц целиком и за предыдущие месяцы, начиная с января 2011 года, Вы можете получить, выбрав интересующий диапазон дат из раскрывающегося списка и нажав кнопку "Ввод!".


*Определитесь, кто Вы:
робот инопланетянин человек

Внимание! Время в таблицах - всемирное. Для получения местного времени необходимо прибавить поправку, которая в Караганде равна 6 ч.

Смотрите также архив погоды в соседних городах и на ближайших метеорологических станциях:

Погода в Караганде-ШОС (Карагандинская область, Казахстан) (4 км)
Погода в Корнеевке (Карагандинская область, Казахстан) (11 км)
Погода в Темиртау (Карагандинская область, Казахстан) (33 км)
Погода в Топаре (Карагандинская область, Казахстан) (40 км)
Погода в Осакаровке (Карагандинская область, Казахстан) (94 км)
Погода в Молодежном (Карагандинская область, Казахстан) (107 км)
Погода в Бесобе (Карагандинская область, Казахстан) (108 км)
Погода в Жарыке (Карагандинская область, Казахстан) (108 км)
Погода в Кертинди (Карагандинская область, Казахстан) (114 км)
Погода в Киевке (Карагандинская область, Казахстан) (123 км)

Пояснения к столбцам:

Ветер - указаны скорость ветра в м/с - средняя за 10 мин, порывы в срок и между сроками (в фигурных скобках) и направление, откуда дует ветер: С - северный, СВ - северо-восточный, В - восточный, ЮВ - юго-восточный, Ю - южный, ЮЗ - юго-западный, З - западный, СЗ - северо-западный.
Видимость - горизонтальная дальность видимости в метрах или километрах. При видимости от 1 до 10 км при отсутствии осадков обычно наблюдается дымка, при ухудшении видимости до 1 км и менее - туман. В сухую погоду видимость может ухудшаться дымом, пылью или мглою.
Явления - указаны атмосферные явления, наблюдавшиеся в срок или в последний час перед сроком; фигурными скобками обозначены явления, наблюдавшиеся между сроками (за 1-3 часа до срока); квадратными скобками обозначены град или гололедные отложения с указанием их диаметра в мм.
Облачность - указаны через наклонную черту общая и нижняя облачность в баллах и высота нижней границы облаков в метрах; квадратными скобками обозначены формы облаков: Ci - перистые, Cs - перисто-слоистые, Cc - перисто-кучевые, Ac - высококучевые, As - высокослоистые, Sc - слоисто-кучевые, Ns - слоисто-дождевые, Cu - кучевые, Cb - кучево-дождевые. Подробнее классификацию облаков см. в Атласе облаков (PDF).
T - Температура воздуха - температура, измеренная на высоте 2 м над землей.
Td - Температура точки росы - температура, при понижении до которой содержащийся в воздухе водяной пар достигнет насыщения.
f - Относительная влажность воздуха - влажноcть воздуха, измеренная на высоте 2 м над землей.
Te - Эффективная температура - температура, которую ощущает одетый по сезону человек в тени. Характеристика душности погоды. При расчете учитывается влияние влажности воздуха и скорости ветра на теплоощущения человека.
Tes - Эффективная температура на солнце - температура, которую ощущает человек, с поправкой на солнечный нагрев. Характеристика знойности погоды. Зависит от высоты солнца над горизонтом, облачности и скорости ветра. Ночью, в пасмурную погоду, а также при ветре 12 м/с и более поправка равна нулю.
P - Атмосферное давление - приведенное к уровню моря атмосферное давление.
Po - Атмосферное давление - измеренное на уровне метеостанции атмосферное давление.
Tmin - Минимальная температура - минимум температуры воздуха на высоте 2 м над землей.
Tmax - Максимальная температура - максимум температуры воздуха на высоте 2 м над землей.
R - Количество осадков - Количество выпавших осадков за период времени, мм. При наведении курсора мыши на число - период времени, за который выпало указанное количество осадков.
R24 - Количество осадков - Количество выпавших осадков за 24 часа, мм.
S - Снежный покров - Высота снежного покрова, см. При наведении курсора мыши на число - состояние снежного покрова и степень покрытия местности в баллах.